Location: Dziadowski
(50.3833°N, 20.0333°E)
Time: 18:25:25
(UTC+00:00)

Cosmos 2084 Rocket - Pass Details

Date: 18 January 2026
Orbit: 541 x 571 km, 62.8° (Epoch: 18 February)

Event Time Altitude Azimuth Distance (km) Brightness Sun altitude
Exits shadow 04:15:07 43° 341° (NNW) 806 3.9 -21.2°
Maximum altitude 04:16:17 63° 42° (NE) 642 3.7 -21.0°
Drops below altitude 10° 04:20:28 10° 123° (ESE) 1,873 7.0 -20.3°
Sets 04:22:44 0° 127° (SE) 2,769 8.0 -20.0°
